Home > Weather > Wolfsburg > Past weeks

Flag for Germany Weather for the Past 2 Weeks in Wolfsburg, Lower Saxony, Germany

Now
48 °F

Sunny.


Feels Like: 43 °F
Forecast: 41 / 54 °F
Wind: 13 mph from Southwest

Location: Braunschweig Wolfsburg

Current Time: Apr 29, 2016 at 11:07:47 AM

Latest Report: Apr 29, 2016 at 9:50 AM


Visibility: 10 mi

Pressure: 30.01 "Hg

Humidity: 62%

Dew Point: 36 °F

Location of WolfsburgLocation

Historic Weather in Wolfsburg — Graph

°F

Wolfsburg Temperature Yesterday

Maximum temperature yesterday: 48 °F (at 2:50 PM)
Minimum temperature yesterday: 37 °F (at 6:50 AM)
Average temperature yesterday: 44 °F

High & Low Weather Summary for the Past Weeks

 TemperatureHumidityPressure
High59 °F (Apr 16, 1:50 PM)100% (Apr 22, 7:50 AM)30.42 "Hg (Apr 22, 7:50 AM)
Low32 °F (Apr 21, 6:50 AM)29% (Apr 21, 4:20 PM)29.45 "Hg (Apr 26, 6:50 AM)
Average47 °F65%29.90 "Hg
* Reported Apr 14 9:20 AM — Apr 29 9:20 AM, Wolfsburg, Weather by CustomWeather, © 2016

Note: Actual official high and low records may vary slightly from our data, if they occured in-between our weather recording intervals... More about our weather records

Advertising

Wolfsburg Weather History for the Previous 24 Hours

Scroll right to see more
 ConditionsComfort  
Time TempWeatherWind HumidityBarometerVisibility
9:20 AM
Fri, Apr 29
48 °FSunny.12 mph62%30.01 "Hg10 mi
8:50 AM45 °FPassing clouds.10 mph66%30.01 "HgN/A
8:20 AM43 °FSunny.8 mph71%30.01 "Hg10 mi
7:50 AM39 °FSunny.9 mph75%29.98 "Hg10 mi
6:50 AM37 °FSunny.8 mph75%29.98 "Hg10 mi
8:50 PM
Thu, Apr 28
41 °FSunny.6 mph76%29.98 "Hg10 mi
8:20 PM45 °FSunny.No wind71%29.98 "Hg10 mi
7:50 PM46 °FSunny.3 mph66%29.98 "Hg10 mi
7:20 PM45 °FPartly sunny.5 mph71%29.98 "HgN/A
6:50 PM45 °FBroken clouds.8 mph71%29.95 "HgN/A
6:20 PM45 °FScattered clouds.8 mph76%29.95 "HgN/A
5:50 PM46 °FSprinkles. Scattered clouds.13 mph62%29.95 "HgN/A
5:20 PM48 °FScattered showers. Scattered clouds.10 mph62%29.92 "HgN/A
4:50 PM48 °FScattered clouds.8 mph66%29.92 "HgN/A
4:20 PM48 °FScattered showers. Scattered clouds.7 mph66%29.92 "HgN/A
3:50 PM45 °FSprinkles. Broken clouds.14 mph71%29.92 "HgN/A
2:50 PM48 °FScattered clouds.13 mph54%29.92 "HgN/A
2:20 PM46 °FScattered showers. Scattered clouds.7 mph66%29.92 "HgN/A
1:20 PM45 °FLight rain. Broken clouds.12 mph66%29.92 "HgN/A
12:50 PM46 °FPartly sunny.13 mph66%29.89 "HgN/A
12:20 PM45 °FBroken clouds.15 mph66%29.89 "HgN/A
11:50 AM43 °FLight rain. Partly sunny.14 mph71%29.89 "HgN/A
11:20 AM45 °FScattered clouds.14 mph66%29.89 "HgN/A
Weather by CustomWeather, © 2016

See weather overviewHow to use our weather pages